Location: Prairie State College
(41.5244°N, 87.6382°W)
Time: 06:44:07
(UTC-05:00)

MSX - Visible Passes

Search period start: 27 August 2016 00:00
Search period end: 06 September 2016 00:00
Orbit: 898 x 903 km, 98.7° (Epoch: 04 May)

Date Brightness Start Highest point End Pass type
(mag) Time Alt. Az. Time Alt. Az. Time Alt. Az.
27 Aug 6.3 20:04:09 10° SSW 20:08:44 24° W 20:13:20 10° NW visible
28 Aug 6.4 20:07:05 10° SW 20:11:32 23° W 20:16:01 10° NW visible
29 Aug 6.5 20:10:03 10° SW 20:14:21 22° W 20:18:41 10° NW visible
30 Aug 6.5 20:13:00 10° SW 20:17:10 20° W 20:21:21 10° NW visible
31 Aug 6.5 20:15:58 10° SW 20:19:59 19° W 20:24:00 10° NW visible
01 Sep 6.6 20:18:58 10° SW 20:22:47 18° W 20:26:38 10° NW visible
02 Sep 6.6 20:21:58 10° SW 20:25:36 17° W 20:29:15 10° NW visible
03 Sep 6.6 20:25:00 10° SW 20:28:25 16° W 20:31:52 10° NW visible
04 Sep 6.7 20:28:03 10° WSW 20:31:14 15° W 20:34:26 10° NW visible
05 Sep 6.7 20:31:08 10° WSW 20:34:03 14° W 20:37:00 10° WNW visible
